Location: Colonia Mina de C?rbuni
(46.1667°N, 22.7167°E)
Time: 21:25:07
(UTC+00:00)

Tiros 1 - Pass Details

Date: 21 April 2024
Orbit: 624 x 657 km, 48.4° (Epoch: 20 May)

Event Time Altitude Azimuth Distance (km) Brightness Sun altitude
Rises 02:14:37 0° 285° (WNW) 2,916 - -12.8°
Exits shadow 02:16:23 - 286° (WNW) 2,225 9.5 -12.6°
Reaches altitude 10° 02:16:57 10° 286° (WNW) 2,004 9.3 -12.5°
Maximum altitude 02:21:34 81° 14° (NNE) 637 7.2 -11.8°
Drops below altitude 10° 02:26:09 10° 102° (ESE) 1,992 10.4 -11.1°
Sets 02:28:28 0° 104° (ESE) 2,897 11.3 -10.8°
